Location: Rowland
(34.5359°N, 79.2929°W)
Time: 20:26:41
(UTC+00:00)

Transit 2A - Pass Details

Date: 12 October 2022
Orbit: 598 x 959 km, 66.7° (Epoch: 03 December)

Event Time Altitude Azimuth Distance (km) Brightness Sun altitude
Rises 00:24:39 0° 164° (SSE) 2,954 - -20.8°
Reaches altitude 10° 00:27:54 10° 140° (SE) 1,995 - -21.4°
Maximum altitude 00:30:19 14° 107° (ESE) 1,693 - -21.9°
Drops below altitude 10° 00:32:41 10° 74° (ENE) 1,950 - -22.4°
Sets 00:35:47 0° 50° (NE) 2,843 - -23.0°
